| time (UTC) | temp F | wind direction | speed MPH | gust MPH | rain 1hr in | rain 24hr in | rain mn in | humidity % | barometer mb |
| 20260506033541 | 57 | 178 | 10.0 | 26.0 | 0.00 | 0.00 | 0.00 | 91 | 1008.2 |
| 20260506033038 | 57 | 174 | 5.0 | 26.0 | 0.00 | 0.00 | 0.00 | 90 | 1008.1 |
| 20260506032536 | 57 | 190 | 11.0 | 22.0 | 0.00 | 0.00 | 0.00 | 90 | 1008.2 |
| 20260506032032 | 57 | 187 | 9.0 | 32.0 | 0.00 | 0.00 | 0.00 | 90 | 1008.1 |
| 20260506031530 | 57 | 211 | 20.0 | 28.0 | 0.00 | 0.00 | 0.00 | 90 | 1008.4 |
| 20260506031027 | 57 | 218 | 10.0 | 20.0 | 0.00 | 0.00 | 0.00 | 90 | 1008.1 |
| 20260506030525 | 57 | 174 | 10.0 | 35.0 | 0.00 | 0.00 | 0.00 | 90 | 1008.1 |
| 20260506030022 | 57 | 188 | 10.0 | 22.0 | 0.00 | 0.00 | 0.00 | 90 | 1008.2 |
| 20260506025519 | 58 | 199 | 9.0 | 22.0 | 0.00 | 0.00 | 0.00 | 90 | 1008.3 |
| 20260506025015 | 58 | 213 | 16.0 | 19.0 | 0.00 | 0.00 | 0.00 | 90 | 1008.2 |
| 20260506024512 | 58 | 203 | 10.0 | 21.0 | 0.00 | 0.00 | 0.00 | 91 | 1008.5 |
| 20260506024008 | 57 | 201 | 5.0 | 24.0 | 0.00 | 0.00 | 0.00 | 91 | 1008.5 |
| 20260506023504 | 58 | 208 | 8.0 | 25.0 | 0.00 | 0.00 | 0.00 | 91 | 1008.4 |
| 20260506023001 | 58 | 196 | 6.0 | 19.0 | 0.00 | 0.00 | 0.00 | 90 | 1008.4 |
| 20260506022459 | 58 | 196 | 10.0 | 22.0 | 0.00 | 0.00 | 0.00 | 90 | 1008.5 |
| 20260506021956 | 58 | 189 | 9.0 | 23.0 | 0.00 | 0.00 | 0.00 | 90 | 1008.3 |
| 20260506021454 | 58 | 206 | 19.0 | 22.0 | 0.00 | 0.00 | 0.00 | 90 | 1008.5 |
| 20260506020951 | 58 | 141 | 10.0 | 22.0 | 0.00 | 0.00 | 0.00 | 90 | 1008.5 |
| 20260506020448 | 58 | 209 | 15.0 | 25.0 | 0.00 | 0.00 | 0.00 | 90 | 1008.4 |
| 20260506015945 | 58 | 215 | 6.0 | 19.0 | 0.00 | 0.00 | 0.00 | 90 | 1008.4 |
| 20260506015443 | 58 | 214 | 5.0 | 22.0 | 0.00 | 0.00 | 0.00 | 89 | 1008.3 |
| 20260506014940 | 58 | 200 | 7.0 | 22.0 | 0.00 | 0.00 | 0.00 | 89 | 1008.3 |
| 20260506014437 | 58 | 216 | 9.0 | 23.0 | 0.00 | 0.00 | 0.00 | 89 | 1008.2 |
| 20260506013933 | 58 | 198 | 11.0 | 24.0 | 0.00 | 0.00 | 0.00 | 89 | 1008.0 |
| 20260506013431 | 58 | 191 | 13.0 | 18.0 | 0.00 | 0.00 | 0.00 | 88 | 1008.1 |
| 20260506012927 | 58 | 205 | 13.0 | 24.0 | 0.00 | 0.00 | 0.00 | 88 | 1008.1 |
| 20260506012424 | 58 | 212 | 17.0 | 24.0 | 0.00 | 0.00 | 0.00 | 88 | 1008.0 |
| 20260506011921 | 58 | 206 | 6.0 | 18.0 | 0.00 | 0.00 | 0.00 | 89 | 1008.1 |
| 20260506011418 | 58 | 207 | 8.0 | 21.0 | 0.00 | 0.00 | 0.00 | 89 | 1008.1 |
| 20260506010915 | 58 | 180 | 13.0 | 32.0 | 0.00 | 0.00 | 0.00 | 88 | 1008.1 |
| 20260506010414 | 58 | 170 | 5.0 | 24.0 | 0.00 | 0.00 | 0.00 | 87 | 1008.1 |
| 20260506005909 | 59 | 200 | 12.0 | 22.0 | 0.00 | 0.00 | 0.00 | 87 | 1007.9 |
| 20260506005408 | 59 | 223 | 11.0 | 29.0 | 0.00 | 0.00 | 0.00 | 87 | 1007.8 |
| 20260506004902 | 59 | 187 | 9.0 | 24.0 | 0.00 | 0.00 | 0.00 | 86 | 1007.7 |
| 20260506004401 | 59 | 196 | 14.0 | 26.0 | 0.00 | 0.00 | 0.00 | 87 | 1007.9 |
| 20260506003856 | 59 | 211 | 12.0 | 28.0 | 0.00 | 0.00 | 0.00 | 86 | 1007.6 |
| 20260506003353 | 59 | 203 | 9.0 | 20.0 | 0.00 | 0.00 | 0.00 | 86 | 1007.5 |
| 20260506002849 | 59 | 211 | 17.0 | 22.0 | 0.00 | 0.00 | 0.00 | 86 | 1007.7 |
| 20260506002345 | 60 | 193 | 9.0 | 22.0 | 0.00 | 0.00 | 0.00 | 85 | 1007.3 |
| 20260506001841 | 60 | 214 | 14.0 | 30.0 | 0.00 | 0.00 | 0.00 | 83 | 1007.4 |
| 20260506001338 | 60 | 190 | 28.0 | 28.0 | 0.00 | 0.00 | 0.00 | 83 | 1007.3 |
| 20260506000835 | 60 | 208 | 4.0 | 27.0 | 0.00 | 0.00 | 0.00 | 84 | 1007.4 |
| 20260506000333 | 59 | 211 | 7.0 | 26.0 | 0.00 | 0.00 | 0.00 | 85 | 1007.1 |
| 20260505235830 | 59 | 190 | 12.0 | 26.0 | 0.00 | 0.00 | 0.00 | 86 | 1007.0 |
| 20260505235327 | 59 | 204 | 11.0 | 24.0 | 0.00 | 0.00 | 0.00 | 86 | 1007.1 |
| 20260505234824 | 60 | 167 | 13.0 | 23.0 | 0.00 | 0.00 | 0.00 | 85 | 1007.0 |
| 20260505234322 | 59 | 186 | 10.0 | 23.0 | 0.00 | 0.00 | 0.00 | 86 | 1007.1 |
| 20260505233819 | 59 | 183 | 9.0 | 24.0 | 0.00 | 0.00 | 0.00 | 85 | 1006.6 |
| 20260505233317 | 60 | 209 | 14.0 | 25.0 | 0.00 | 0.00 | 0.00 | 85 | 1006.5 |
| 20260505232813 | 60 | 190 | 12.0 | 36.0 | 0.00 | 0.00 | 0.00 | 85 | 1006.6 |
| 20260505232311 | 59 | 188 | 29.0 | 33.0 | 0.00 | 0.00 | 0.00 | 85 | 1006.4 |
| 20260505231808 | 59 | 199 | 11.0 | 23.0 | 0.00 | 0.00 | 0.00 | 86 | 1006.5 |
| 20260505231306 | 59 | 197 | 21.0 | 23.0 | 0.00 | 0.00 | 0.00 | 86 | 1006.6 |
| 20260505230804 | 59 | 196 | 8.0 | 29.0 | 0.00 | 0.00 | 0.00 | 86 | 1006.5 |
| 20260505230300 | 59 | 182 | 10.0 | 23.0 | 0.00 | 0.00 | 0.00 | 85 | 1006.4 |
| 20260505225757 | 60 | 191 | 17.0 | 31.0 | 0.00 | 0.00 | 0.00 | 85 | 1006.4 |
| 20260505225254 | 60 | 167 | 5.0 | 27.0 | 0.00 | 0.00 | 0.00 | 85 | 1006.4 |
| 20260505224749 | 60 | 201 | 12.0 | 24.0 | 0.00 | 0.00 | 0.00 | 85 | 1006.5 |
| 20260505224247 | 60 | 180 | 10.0 | 26.0 | 0.00 | 0.00 | 0.00 | 85 | 1006.2 |
| 20260505223744 | 60 | 200 | 11.0 | 30.0 | 0.00 | 0.00 | 0.00 | 85 | 1006.2 |
| 20260505223241 | 60 | 180 | 17.0 | 29.0 | 0.00 | 0.00 | 0.00 | 85 | 1006.1 |
| 20260505222737 | 60 | 208 | 14.0 | 26.0 | 0.00 | 0.00 | 0.00 | 85 | 1005.9 |
| 20260505222233 | 60 | 191 | 11.0 | 24.0 | 0.00 | 0.00 | 0.00 | 86 | 1006.3 |
| 20260505221730 | 60 | 189 | 10.0 | 28.0 | 0.00 | 0.00 | 0.00 | 85 | 1006.3 |
| 20260505221227 | 60 | 198 | 6.0 | 34.0 | 0.00 | 0.00 | 0.00 | 84 | 1006.2 |
| 20260505220724 | 60 | 180 | 15.0 | 25.0 | 0.00 | 0.00 | 0.00 | 84 | 1006.1 |
| 20260505220221 | 60 | 192 | 7.0 | 29.0 | 0.00 | 0.00 | 0.00 | 84 | 1005.8 |
| 20260505215720 | 60 | 202 | 7.0 | 26.0 | 0.00 | 0.00 | 0.00 | 83 | 1006.2 |
| 20260505215217 | 61 | 187 | 10.0 | 26.0 | 0.00 | 0.00 | 0.00 | 84 | 1006.0 |
| 20260505214714 | 60 | 197 | 15.0 | 32.0 | 0.00 | 0.00 | 0.00 | 83 | 1006.0 |
| 20260505214212 | 61 | 184 | 5.0 | 27.0 | 0.00 | 0.00 | 0.00 | 83 | 1006.3 |
| 20260505213709 | 61 | 200 | 15.0 | 27.0 | 0.00 | 0.00 | 0.00 | 83 | 1006.1 |
| 20260505213206 | 61 | 167 | 6.0 | 25.0 | 0.00 | 0.00 | 0.00 | 83 | 1005.8 |
| 20260505212702 | 61 | 216 | 6.0 | 26.0 | 0.00 | 0.00 | 0.00 | 83 | 1005.8 |
| 20260505212159 | 61 | 201 | 17.0 | 29.0 | 0.00 | 0.00 | 0.00 | 84 | 1005.5 |
| 20260505211656 | 61 | 192 | 8.0 | 23.0 | 0.00 | 0.00 | 0.00 | 83 | 1005.8 |
| 20260505211153 | 61 | 210 | 15.0 | 27.0 | 0.00 | 0.00 | 0.00 | 83 | 1006.0 |
| 20260505210650 | 61 | 207 | 13.0 | 23.0 | 0.00 | 0.00 | 0.00 | 84 | 1005.6 |
| 20260505210147 | 60 | 202 | 13.0 | 28.0 | 0.00 | 0.00 | 0.00 | 84 | 1005.6 |
| 20260505205644 | 60 | 208 | 12.0 | 30.0 | 0.00 | 0.00 | 0.00 | 84 | 1005.9 |
| 20260505205142 | 61 | 198 | 10.0 | 19.0 | 0.00 | 0.00 | 0.00 | 83 | 1005.5 |
| 20260505204639 | 60 | 203 | 16.0 | 25.0 | 0.00 | 0.00 | 0.00 | 84 | 1005.8 |
| 20260505204137 | 61 | 207 | 8.0 | 26.0 | 0.00 | 0.00 | 0.00 | 84 | 1005.5 |
| 20260505203633 | 60 | 201 | 17.0 | 26.0 | 0.00 | 0.00 | 0.00 | 84 | 1005.6 |
| 20260505203130 | 61 | 198 | 7.0 | 21.0 | 0.00 | 0.00 | 0.00 | 84 | 1005.8 |
| 20260505202626 | 61 | 198 | 7.0 | 30.0 | 0.00 | 0.00 | 0.00 | 84 | 1005.6 |
| 20260505202122 | 61 | 190 | 9.0 | 24.0 | 0.00 | 0.00 | 0.00 | 84 | 1005.8 |
| 20260505201619 | 60 | 208 | 14.0 | 26.0 | 0.00 | 0.00 | 0.00 | 84 | 1005.8 |
| 20260505201117 | 61 | 204 | 9.0 | 28.0 | 0.00 | 0.00 | 0.00 | 84 | 1005.9 |
| 20260505200614 | 61 | 193 | 17.0 | 30.0 | 0.00 | 0.00 | 0.00 | 85 | 1005.8 |
| 20260505200111 | 61 | 211 | 11.0 | 24.0 | 0.00 | 0.00 | 0.00 | 85 | 1005.8 |
| 20260505195608 | 61 | 190 | 23.0 | 24.0 | 0.00 | 0.00 | 0.00 | 84 | 1006.0 |
| 20260505195105 | 60 | 190 | 7.0 | 24.0 | 0.00 | 0.00 | 0.00 | 85 | 1006.2 |
| 20260505194602 | 61 | 202 | 12.0 | 24.0 | 0.00 | 0.00 | 0.00 | 84 | 1006.1 |
| 20260505194058 | 60 | 200 | 8.0 | 27.0 | 0.00 | 0.00 | 0.00 | 85 | 1006.1 |
| 20260505193555 | 61 | 218 | 5.0 | 22.0 | 0.00 | 0.00 | 0.00 | 85 | 1006.3 |
| 20260505193052 | 61 | 192 | 6.0 | 16.0 | 0.00 | 0.00 | 0.00 | 84 | 1006.3 |
| 20260505192551 | 61 | 199 | 8.0 | 17.0 | 0.00 | 0.00 | 0.00 | 84 | 1006.5 |
| 20260505192048 | 61 | 180 | 10.0 | 23.0 | 0.00 | 0.00 | 0.00 | 85 | 1006.5 |
| 20260505191546 | 61 | 211 | 12.0 | 23.0 | 0.00 | 0.00 | 0.00 | 84 | 1006.8 |
| 20260505191044 | 61 | 192 | 9.0 | 22.0 | 0.00 | 0.00 | 0.00 | 85 | 1006.7 |
| 20260505190543 | 61 | 214 | 9.0 | 21.0 | 0.00 | 0.00 | 0.00 | 85 | 1006.9 |
| 20260505190040 | 61 | 200 | 11.0 | 18.0 | 0.00 | 0.00 | 0.00 | 84 | 1006.9 |
| 20260505185537 | 61 | 188 | 10.0 | 21.0 | 0.00 | 0.00 | 0.00 | 85 | 1007.2 |
| 20260505185033 | 61 | 219 | 5.0 | 25.0 | 0.00 | 0.00 | 0.00 | 86 | 1007.2 |
| 20260505184530 | 61 | 167 | 12.0 | 19.0 | 0.00 | 0.00 | 0.00 | 85 | 1007.2 |
| 20260505184027 | 61 | 190 | 5.0 | 18.0 | 0.00 | 0.00 | 0.00 | 84 | 1007.3 |
| 20260505183524 | 61 | 190 | 9.0 | 17.0 | 0.00 | 0.00 | 0.00 | 85 | 1007.5 |
| 20260505183021 | 61 | 193 | 8.0 | 17.0 | 0.00 | 0.00 | 0.00 | 85 | 1007.7 |
| 20260505182517 | 61 | 224 | 9.0 | 17.0 | 0.00 | 0.00 | 0.00 | 85 | 1007.5 |
| 20260505182014 | 61 | 211 | 10.0 | 14.0 | 0.00 | 0.00 | 0.00 | 85 | 1007.8 |
| 20260505181511 | 61 | 227 | 8.0 | 12.0 | 0.00 | 0.00 | 0.00 | 84 | 1007.7 |
| 20260505181008 | 60 | 194 | 7.0 | 17.0 | 0.00 | 0.00 | 0.00 | 86 | 1007.7 |
| 20260505180504 | 61 | 227 | 3.0 | 15.0 | 0.00 | 0.00 | 0.00 | 85 | 1008.0 |
| 20260505180001 | 61 | 211 | 7.0 | 13.0 | 0.00 | 0.00 | 0.00 | 86 | 1007.9 |
| 20260505175457 | 61 | 176 | 7.0 | 13.0 | 0.00 | 0.00 | 0.00 | 86 | 1007.9 |
| 20260505174954 | 60 | 193 | 4.0 | 13.0 | 0.00 | 0.00 | 0.00 | 86 | 1008.1 |
| 20260505174451 | 61 | 186 | 4.0 | 11.0 | 0.00 | 0.00 | 0.00 | 85 | 1008.3 |
| 20260505173947 | 61 | 171 | 4.0 | 15.0 | 0.00 | 0.00 | 0.00 | 86 | 1008.4 |
| 20260505173443 | 62 | 189 | 4.0 | 11.0 | 0.00 | 0.00 | 0.00 | 85 | 1008.4 |
| 20260505172941 | 62 | 187 | 5.0 | 13.0 | 0.00 | 0.00 | 0.00 | 85 | 1008.1 |
| 20260505172439 | 61 | 180 | 6.0 | 11.0 | 0.00 | 0.00 | 0.00 | 85 | 1008.1 |
| 20260505171938 | 61 | 179 | 6.0 | 10.0 | 0.00 | 0.00 | 0.00 | 86 | 1008.0 |
| 20260505171435 | 60 | 189 | 9.0 | 11.0 | 0.00 | 0.00 | 0.00 | 87 | 1008.4 |
| 20260505170932 | 60 | 210 | 10.0 | 15.0 | 0.00 | 0.00 | 0.00 | 87 | 1008.3 |
| 20260505170428 | 60 | 184 | 5.0 | 12.0 | 0.00 | 0.00 | 0.00 | 87 | 1008.3 |
| 20260505165924 | 60 | 194 | 7.0 | 15.0 | 0.00 | 0.00 | 0.00 | 87 | 1008.3 |
| 20260505165420 | 60 | 179 | 4.0 | 14.0 | 0.00 | 0.00 | 0.00 | 88 | 1008.6 |
| 20260505164915 | 60 | 161 | 5.0 | 18.0 | 0.00 | 0.00 | 0.00 | 87 | 1008.6 |
| 20260505164413 | 60 | 168 | 7.0 | 17.0 | 0.00 | 0.00 | 0.00 | 87 | 1008.5 |
| 20260505163911 | 61 | 185 | 5.0 | 11.0 | 0.00 | 0.00 | 0.00 | 86 | 1008.7 |
| 20260505163409 | 61 | 207 | 7.0 | 11.0 | 0.00 | 0.00 | 0.00 | 86 | 1008.5 |
| 20260505162908 | 60 | 191 | 8.0 | 13.0 | 0.00 | 0.00 | 0.00 | 86 | 1008.4 |
| 20260505162403 | 60 | 167 | 6.0 | 14.0 | 0.00 | 0.00 | 0.00 | 86 | 1008.6 |
| 20260505161900 | 60 | 205 | 9.0 | 17.0 | 0.00 | 0.00 | 0.00 | 86 | 1008.5 |
| 20260505161357 | 61 | 192 | 3.0 | 10.0 | 0.00 | 0.00 | 0.00 | 86 | 1008.7 |
| 20260505160854 | 61 | 196 | 6.0 | 16.0 | 0.00 | 0.00 | 0.00 | 86 | 1008.4 |
| 20260505160352 | 61 | 193 | 5.0 | 12.0 | 0.00 | 0.00 | 0.00 | 86 | 1008.7 |
| 20260505153331 | 61 | 218 | 4.0 | 12.0 | 0.00 | 0.00 | 0.00 | 87 | 1008.9 |
| 20260505152828 | 61 | 180 | 5.0 | 10.0 | 0.00 | 0.00 | 0.00 | 86 | 1008.8 |
| 20260505152325 | 61 | 171 | 5.0 | 12.0 | 0.00 | 0.00 | 0.00 | 86 | 1008.8 |
| 20260505151820 | 60 | 180 | 8.0 | 11.0 | 0.00 | 0.00 | 0.00 | 87 | 1008.9 |
| 20260505151317 | 60 | 184 | 6.0 | 13.0 | 0.00 | 0.00 | 0.00 | 88 | 1008.9 |
| 20260505150814 | 60 | 205 | 8.0 | 12.0 | 0.00 | 0.00 | 0.00 | 87 | 1009.1 |
| 20260505150311 | 60 | 208 | 6.0 | 13.0 | 0.00 | 0.00 | 0.00 | 88 | 1009.3 |
| 20260505140241 | 59 | 204 | 12.0 | 14.0 | 0.00 | 0.00 | 0.00 | 90 | 1008.9 |
| 20260505130205 | 57 | 161 | 4.0 | 10.0 | 0.00 | 0.00 | 0.00 | 93 | 1008.8 |
| 20260505124654 | 57 | 202 | 6.0 | 14.0 | 0.00 | 0.00 | 0.00 | 93 | 1008.8 |
| 20260505124151 | 57 | 210 | 2.0 | 11.0 | 0.00 | 0.00 | 0.00 | 93 | 1008.7 |
| 20260505123647 | 57 | 189 | 6.0 | 11.0 | 0.00 | 0.00 | 0.00 | 94 | 1008.6 |
| 20260505123144 | 57 | 162 | 7.0 | 10.0 | 0.00 | 0.00 | 0.00 | 94 | 1008.7 |
| 20260505122640 | 56 | 218 | 7.0 | 11.0 | 0.00 | 0.00 | 0.00 | 94 | 1008.6 |
| 20260505122138 | 56 | 179 | 5.0 | 8.0 | 0.00 | 0.00 | 0.00 | 95 | 1008.6 |
| 20260505121634 | 56 | 172 | 7.0 | 7.0 | 0.00 | 0.00 | 0.00 | 94 | 1008.6 |
| 20260505121131 | 57 | 184 | 3.0 | 6.0 | 0.00 | 0.00 | 0.00 | 95 | 1008.7 |
| 20260505120628 | 56 | 178 | 3.0 | 8.0 | 0.00 | 0.00 | 0.00 | 95 | 1009.0 |
| 20260505120124 | 56 | 165 | 5.0 | 7.0 | 0.00 | 0.00 | 0.00 | 94 | 1008.7 |
| 20260505115623 | 56 | 180 | 5.0 | 8.0 | 0.00 | 0.00 | 0.00 | 94 | 1008.7 |
| 20260505115121 | 56 | 193 | 3.0 | 6.0 | 0.00 | 0.00 | 0.00 | 94 | 1008.9 |
| 20260505114618 | 56 | 182 | 2.0 | 7.0 | 0.00 | 0.00 | 0.00 | 96 | 1008.7 |
| 20260505114114 | 55 | 204 | 1.0 | 6.0 | 0.00 | 0.00 | 0.00 | 96 | 1008.8 |
| 20260505113611 | 55 | 147 | 1.0 | 6.0 | 0.00 | 0.00 | 0.00 | 96 | 1009.0 |
| 20260505113108 | 55 | 187 | 3.0 | 6.0 | 0.00 | 0.00 | 0.00 | 96 | 1009.0 |
| 20260505112604 | 55 | 195 | 4.0 | 7.0 | 0.00 | 0.00 | 0.00 | 96 | 1009.1 |
| 20260505112103 | 55 | 193 | 4.0 | 7.0 | 0.00 | 0.00 | 0.00 | 96 | 1008.9 |
| 20260505111601 | 55 | 160 | 4.0 | 8.0 | 0.00 | 0.00 | 0.00 | 95 | 1008.7 |
| 20260505111058 | 55 | 159 | 4.0 | 6.0 | 0.00 | 0.00 | 0.00 | 96 | 1008.9 |
| 20260505110554 | 55 | 226 | 2.0 | 5.0 | 0.00 | 0.00 | 0.00 | 96 | 1009.1 |
| 20260505102027 | 53 | 175 | 2.0 | 7.0 | 0.00 | 0.00 | 0.00 | 99 | 1008.1 |
| 20260505101526 | 53 | 202 | 3.0 | 9.0 | 0.00 | 0.00 | 0.00 | 99 | 1008.0 |
| 20260505101021 | 53 | 209 | 3.0 | 7.0 | 0.00 | 0.00 | 0.00 | 99 | 1008.1 |
| 20260505100519 | 53 | 186 | 4.0 | 8.0 | 0.00 | 0.00 | 0.00 | 99 | 1008.1 |
| 20260505100016 | 53 | 187 | 3.0 | 10.0 | 0.00 | 0.00 | 0.00 | 99 | 1007.6 |
| 20260505095511 | 53 | 201 | 3.0 | 7.0 | 0.00 | 0.00 | 0.00 | 99 | 1007.8 |
| 20260505095008 | 53 | 145 | 10.0 | 10.0 | 0.00 | 0.00 | 0.00 | 99 | 1008.1 |
| 20260505094504 | 53 | 186 | 2.0 | 8.0 | 0.00 | 0.00 | 0.00 | 99 | 1007.7 |
| 20260505094001 | 52 | 173 | 3.0 | 5.0 | 0.00 | 0.00 | 0.00 | 99 | 1007.7 |
| 20260505093457 | 53 | 157 | 0.0 | 6.0 | 0.00 | 0.00 | 0.00 | 99 | 1007.9 |
| 20260505092955 | 53 | 195 | 2.0 | 5.0 | 0.00 | 0.00 | 0.00 | 99 | 1007.5 |
| 20260505092452 | 53 | 151 | 0.0 | 5.0 | 0.00 | 0.00 | 0.00 | 99 | 1008.0 |
| 20260505091949 | 53 | 174 | 2.0 | 7.0 | 0.00 | 0.00 | 0.00 | 99 | 1007.8 |
| 20260505091447 | 53 | 207 | 2.0 | 5.0 | 0.00 | 0.00 | 0.00 | 99 | 1007.7 |
| 20260505090945 | 53 | 201 | 2.0 | 6.0 | 0.00 | 0.00 | 0.00 | 99 | 1007.7 |
| 20260505090443 | 53 | 201 | 2.0 | 6.0 | 0.00 | 0.00 | 0.00 | 98 | 1007.7 |
| 20260505085940 | 53 | 148 | 1.0 | 6.0 | 0.00 | 0.00 | 0.00 | 99 | 1007.8 |
| 20260505085438 | 53 | 194 | 2.0 | 4.0 | 0.00 | 0.00 | 0.00 | 98 | 1007.6 |
| 20260505084936 | 53 | 198 | 1.0 | 4.0 | 0.00 | 0.00 | 0.00 | 98 | 1007.8 |
| 20260505084434 | 53 | 198 | 4.0 | 5.0 | 0.00 | 0.00 | 0.00 | 98 | 1007.7 |
| 20260505083931 | 53 | 187 | 2.0 | 7.0 | 0.00 | 0.00 | 0.00 | 98 | 1007.6 |
| 20260505083428 | 53 | 168 | 2.0 | 5.0 | 0.00 | 0.00 | 0.00 | 98 | 1007.6 |
| 20260505082925 | 53 | 193 | 3.0 | 7.0 | 0.00 | 0.00 | 0.00 | 98 | 1007.7 |
| 20260505082420 | 53 | 199 | 3.0 | 10.0 | 0.00 | 0.00 | 0.00 | 98 | 1007.8 |
| 20260505081918 | 53 | 181 | 2.0 | 9.0 | 0.00 | 0.00 | 0.00 | 98 | 1007.7 |
| 20260505081415 | 53 | 183 | 3.0 | 8.0 | 0.00 | 0.00 | 0.00 | 98 | 1007.9 |
| 20260505080911 | 53 | 193 | 4.0 | 9.0 | 0.00 | 0.00 | 0.00 | 97 | 1007.9 |
| 20260505080407 | 53 | 153 | 2.0 | 7.0 | 0.00 | 0.00 | 0.00 | 97 | 1008.0 |
| 20260505075903 | 53 | 194 | 4.0 | 11.0 | 0.00 | 0.00 | 0.00 | 97 | 1007.8 |
| 20260505075359 | 53 | 199 | 3.0 | 9.0 | 0.00 | 0.00 | 0.00 | 97 | 1007.8 |
| 20260505074857 | 53 | 226 | 4.0 | 7.0 | 0.00 | 0.00 | 0.00 | 97 | 1007.9 |
| 20260505074354 | 53 | 195 | 4.0 | 7.0 | 0.00 | 0.00 | 0.00 | 97 | 1007.8 |
| 20260505073851 | 53 | 186 | 3.0 | 8.0 | 0.00 | 0.00 | 0.00 | 97 | 1007.6 |
| 20260505073349 | 53 | 196 | 3.0 | 8.0 | 0.00 | 0.00 | 0.00 | 97 | 1007.6 |
| 20260505072846 | 53 | 191 | 3.0 | 7.0 | 0.00 | 0.00 | 0.00 | 97 | 1007.8 |
| 20260505072342 | 53 | 195 | 3.0 | 7.0 | 0.00 | 0.00 | 0.00 | 96 | 1007.6 |
| 20260505071838 | 53 | 128 | 1.0 | 5.0 | 0.00 | 0.00 | 0.00 | 96 | 1007.8 |
| 20260505071335 | 53 | 201 | 4.0 | 6.0 | 0.00 | 0.00 | 0.00 | 96 | 1007.9 |
| 20260505070833 | 53 | 189 | 4.0 | 7.0 | 0.00 | 0.00 | 0.00 | 96 | 1007.6 |
| 20260505070329 | 53 | 224 | 4.0 | 9.0 | 0.00 | 0.00 | 0.00 | 96 | 1007.9 |
| 20260505065824 | 53 | 161 | 2.0 | 9.0 | 0.00 | 0.00 | 0.00 | 96 | 1007.8 |
| 20260505065321 | 53 | 176 | 3.0 | 5.0 | 0.00 | 0.00 | 0.00 | 96 | 1008.0 |
| 20260505064819 | 53 | 202 | 1.0 | 8.0 | 0.00 | 0.00 | 0.00 | 95 | 1007.9 |
| 20260505064316 | 53 | 164 | 3.0 | 10.0 | 0.00 | 0.00 | 0.00 | 96 | 1007.8 |
| 20260505063814 | 53 | 203 | 4.0 | 12.0 | 0.00 | 0.00 | 0.00 | 96 | 1007.6 |
| 20260505063309 | 53 | 205 | 6.0 | 8.0 | 0.00 | 0.00 | 0.00 | 96 | 1007.8 |
| 20260505062806 | 53 | 198 | 6.0 | 9.0 | 0.00 | 0.00 | 0.00 | 95 | 1008.0 |
| 20260505062304 | 53 | 155 | 5.0 | 13.0 | 0.00 | 0.00 | 0.00 | 95 | 1007.9 |
| 20260505061800 | 53 | 198 | 5.0 | 11.0 | 0.00 | 0.00 | 0.00 | 95 | 1007.9 |
| 20260505061258 | 53 | 158 | 5.0 | 11.0 | 0.00 | 0.00 | 0.00 | 96 | 1008.1 |
| 20260505060755 | 53 | 212 | 4.0 | 9.0 | 0.00 | 0.00 | 0.00 | 95 | 1008.1 |
| 20260505060252 | 53 | 168 | 3.0 | 7.0 | 0.00 | 0.00 | 0.00 | 95 | 1008.1 |
| 20260505055748 | 53 | 200 | 3.0 | 9.0 | 0.00 | 0.00 | 0.00 | 95 | 1008.1 |
| 20260505055244 | 53 | 202 | 5.0 | 7.0 | 0.00 | 0.00 | 0.00 | 95 | 1008.2 |
| 20260505054742 | 53 | 187 | 5.0 | 11.0 | 0.00 | 0.00 | 0.00 | 95 | 1007.9 |
| 20260505054239 | 53 | 205 | 3.0 | 8.0 | 0.00 | 0.00 | 0.00 | 95 | 1008.3 |
| 20260505053738 | 53 | 212 | 2.0 | 7.0 | 0.00 | 0.00 | 0.00 | 95 | 1008.3 |
| 20260505053234 | 53 | 206 | 1.0 | 4.0 | 0.00 | 0.00 | 0.00 | 95 | 1008.2 |
| 20260505052731 | 53 | 158 | 2.0 | 5.0 | 0.00 | 0.00 | 0.00 | 95 | 1008.3 |
| 20260505052228 | 53 | 211 | 4.0 | 6.0 | 0.00 | 0.00 | 0.00 | 96 | 1008.5 |
| 20260505051725 | 53 | 228 | 8.0 | 8.0 | 0.00 | 0.00 | 0.00 | 96 | 1008.2 |
| 20260505051223 | 53 | 192 | 3.0 | 10.0 | 0.00 | 0.00 | 0.00 | 95 | 1008.5 |
| 20260505050720 | 53 | 216 | 5.0 | 10.0 | 0.00 | 0.00 | 0.00 | 95 | 1008.4 |
| 20260505050219 | 53 | 216 | 3.0 | 6.0 | 0.00 | 0.00 | 0.00 | 95 | 1008.1 |
| 20260505041648 | 54 | 219 | 5.0 | 12.0 | 0.00 | 0.00 | 0.00 | 94 | 1008.5 |
| 20260505041146 | 53 | 206 | 5.0 | 7.0 | 0.00 | 0.00 | 0.00 | 94 | 1008.6 |
| 20260505040643 | 53 | 237 | 6.0 | 7.0 | 0.00 | 0.00 | 0.00 | 94 | 1008.4 |
| 20260505040140 | 53 | 162 | 4.0 | 7.0 | 0.00 | 0.00 | 0.00 | 93 | 1008.5 |
| 20260505035636 | 54 | 183 | 4.0 | 8.0 | 0.00 | 0.00 | 0.00 | 93 | 1008.5 |
| 20260505035132 | 54 | 182 | 6.0 | 11.0 | 0.00 | 0.00 | 0.00 | 93 | 1008.6 |
| 20260505034629 | 54 | 156 | 4.0 | 9.0 | 0.00 | 0.00 | 0.00 | 92 | 1008.7 |
| 20260505034126 | 54 | 151 | 2.0 | 4.0 | 0.00 | 0.00 | 0.00 | 92 | 1008.6 |